Weather History for Cut Bank, MT

Change the Weather History Date:

Sunday, May 19, 2013

  Actual Average Record
Temperature  
Mean Temperature 52 °F 51 °F  
Max Temperature 61 °F 63 °F 85 °F (1964)
Min Temperature 43 °F 38 °F 27 °F (1929)
Degree Days  
Heating Degree Days 13 14  
Month to date heating degree days 252 320  
Since 1 July heating degree days 7883 8140  
Cooling Degree Days 0 0  
Month to date cooling degree days 2 0  
Year to date cooling degree days 2 0  
Growing Degree Days 2 (Base 50)    
Moisture  
Dew Point 43 °F    
Average Humidity 70    
Maximum Humidity 86    
Minimum Humidity 53    
Precipitation  
Precipitation T in 0.07 in 0.93 in (1962)
Month to date precipitation 0.21 0.97  
Year to date precipitation 2.23 2.66  
Snow  
Snow 0.00 in - - ()
Snow Depth 0.00 in    
Sea Level Pressure  
Sea Level Pressure 30.09 in    
Wind  
Wind Speed 13 mph (NW)    
Max Wind Speed 25 mph    
Max Gust Speed 29 mph    
Visibility 10 miles    
Events      
T = Trace of Precipitation, MM = Missing Value Source: NWS Daily Summary

Daily Weather History Graph

Daily Weather History Graph

Search for Another Location

Airport:

Trip Planner

Search our weather history database for the weather conditions in past years. The results will help you decide how hot, cold, wet, or windy it might be!

Date:

Astronomy

May. 19, 2013 Rise Set
Actual Time 5:43 AM MDT 9:09 PM MDT
Civil Twilight 5:04 AM MDT 9:48 PM MDT
Nautical Twilight 4:13 AM MDT 10:39 PM MDT
Astronomical Twilight 3:06 AM MDT 11:48 PM MDT
Moon 2:50 PM MDT (5/19) 2:38 AM MDT (5/19)
Length of Visible Light 16h 43m
Length of Day
15h 26m
Waxing Gibbous, 66% of the Moon is Illuminated
May 19
Waxing Gibbous
May 24
Full
May 31
Last Quarter
Jun 8
New
Jun 16
First Quarter

Hourly Weather History & Observations

Time (MDT) Temp. Windchill Dew Point Humidity Pressure Visibility Wind Dir Wind Speed Gust Speed Precip Events Conditions
12:56 AM 46.9 °F - 43.0 °F 86% 30.00 in 10.0 mi NNW 4.6 mph - N/A   Overcast
1:56 AM 48.0 °F - 43.0 °F 83% 30.00 in 10.0 mi West 3.5 mph - N/A   Overcast
2:56 AM 44.1 °F 40.1 °F 39.9 °F 85% 30.01 in 10.0 mi WNW 6.9 mph - N/A   Scattered Clouds
3:56 AM 44.1 °F 40.1 °F 39.9 °F 85% 30.01 in 10.0 mi WNW 6.9 mph - N/A   Clear
4:56 AM 45.0 °F 40.6 °F 39.9 °F 82% 30.02 in 10.0 mi WNW 8.1 mph - N/A   Partly Cloudy
5:56 AM 46.4 °F 41.9 °F 39.2 °F 76% 30.04 in 10.0 mi WNW 9.2 mph - N/A   Mostly Cloudy
6:56 AM 48.0 °F - 41.0 °F 77% 30.03 in 10.0 mi NW 10.4 mph - N/A   Overcast
7:56 AM 48.9 °F - 41.0 °F 74% 30.06 in 10.0 mi WNW 9.2 mph - N/A   Overcast
8:56 AM 50.0 °F - 42.1 °F 74% 30.07 in 10.0 mi WNW 8.1 mph - N/A   Overcast
9:56 AM 55.0 °F - 44.1 °F 67% 30.07 in 10.0 mi WNW 10.4 mph - N/A   Overcast
10:56 AM 55.0 °F - 41.0 °F 59% 30.08 in 10.0 mi NW 11.5 mph 21.9 mph N/A   Overcast
11:56 AM 57.2 °F - 44.6 °F 63% 30.10 in 10.0 mi North 17.3 mph - N/A   Overcast
12:56 PM 57.9 °F - 42.1 °F 56% 30.09 in 10.0 mi North 19.6 mph - N/A   Overcast
1:56 PM 59.0 °F - 42.1 °F 53% 30.09 in 10.0 mi North 13.8 mph - N/A   Overcast
2:56 PM 59.0 °F - 44.1 °F 58% 30.10 in 10.0 mi NNW 18.4 mph 25.3 mph N/A   Overcast
3:56 PM 59.0 °F - 44.1 °F 58% 30.11 in 10.0 mi NNW 23.0 mph 27.6 mph N/A   Overcast
4:56 PM 57.9 °F - 43.0 °F 58% 30.12 in 10.0 mi North 19.6 mph 25.3 mph N/A   Overcast
5:56 PM 55.9 °F - 45.0 °F 67% 30.14 in 10.0 mi North 18.4 mph 26.5 mph N/A   Overcast
6:56 PM 55.0 °F - 48.0 °F 77% 30.14 in 10.0 mi NNW 15.0 mph - 0.00 in   Overcast
7:56 PM 55.0 °F - 44.1 °F 67% 30.16 in 10.0 mi North 17.3 mph - N/A   Overcast
8:56 PM 54.0 °F - 45.0 °F 72% 30.17 in 10.0 mi NNW 13.8 mph - N/A   Overcast
9:56 PM 53.1 °F - 45.0 °F 74% 30.17 in 10.0 mi NNW 15.0 mph - N/A   Overcast
10:56 PM 52.0 °F - 46.0 °F 80% 30.17 in 10.0 mi North 10.4 mph - N/A   Overcast
11:56 PM 50.0 °F - 45.0 °F 83% 30.16 in 10.0 mi NW 13.8 mph - N/A   Overcast